Regional Weather Roundup
Issued by NWS

Home | Current Version | Previous Version | Graphics & Text | Print | Product List | Glossary On
Versions: 1 2 3 4 5 6 7 8 9 10 11 12 13 14 15 16 17 18 19 20 21 22 23 24 25 26 27 28 29 30 31 32 33 34 35 36 37 38 39 40 41 42 43 44 45 46 47 48 49 50
000
ASUS44 KMEG 010900
RWRTN
TENNESSEE HOURLY STATE WEATHER ROUNDUP
NATIONAL WEATHER SERVICE MEMPHIS TN
400 AM CDT SUN MAY 01 2016

TNZ002-004-019-021-049-052-054-088>092-011000-
WEST TENNESSEE

CITY           SKY/WX    TMP DP  RH WIND       PRES   REMARKS
MEMPHIS INTL   PTCLDY    66  63  90 S8        29.88R
NWS MEMPHIS      N/A     63 N/A N/A MISG        N/A
JACKSON        CLEAR     64  63  96 S6        29.88R
DYERSBURG      MOCLDY    63  61  94 CALM        N/A
UNION CITY     PTCLDY    61  61 100 CALM      29.87R
$$

TNZ008-025-027-028-033-062-065-066-011000-
NORTH MIDDLE TENNESSEE

CITY           SKY/WX    TMP DP  RH WIND       PRES   REMARKS
NASHVILLE      PTCLDY    64  61  90 CALM      29.90S
CLARKSVILLE    FOG       61  60  97 CALM      29.89R VSB 1/4
CROSSVILLE     MOCLDY    69  62  78 S7        29.97S
$$

TNZ061-075-076-078-094-096-097-011000-
SOUTH MIDDLE TENNESSEE

CITY           SKY/WX    TMP DP  RH WIND       PRES   REMARKS
SHELBYVILLE    PTCLDY    66  66 100 S3        29.94R
$$

TNZ017-018-042-046-047-011000-
NORTHEAST TENNESSEE

CITY           SKY/WX    TMP DP  RH WIND       PRES   REMARKS
TRI CITIES     MOCLDY    60  58  92 CALM      29.98S
$$

TNZ012-013-036-069-073-074-011000-
CENTRAL EAST TENNESSEE

CITY           SKY/WX    TMP DP  RH WIND       PRES   REMARKS
KNOXVILLE      FOG       63  62  97 CALM      29.95S VSB 1/4
OAK RIDGE      CLOUDY    63  62  97 CALM      29.97R FOG
$$

TNZ083-085-099-011000-
SOUTHEAST TENNESSEE

CITY           SKY/WX    TMP DP  RH WIND       PRES   REMARKS
CHATTANOOGA    CLEAR     64  62  93 NW5       29.96R
$$

SKY/WX REPORTED AS FAIR MEANS FEW OR NO CLOUDS BELOW
12 THOUSAND FEET.




USA.gov is the U.S. government's official web portal to all federal, state and local government web resources and services.